GW0725 Weather Reports


time (UTC)temp
F
wind
direction
speed
knots
gust
knots
rain 1hr
in
rain 24hr
in
rain mn
in
humidity
%
barometer
mb
20260507060508 46 216 0.0 0.9 0.00 0.00 0.00 88 1012.2
20260507055955 46 242 0.9 0.9 0.00 0.00 0.00 88 1012.0
20260507055449 46 227 0.0 0.9 0.00 0.00 0.00 88 1012.0
20260507054935 45 238 0.9 0.9 0.00 0.00 0.00 89 1012.1
20260507054425 45 252 0.9 0.9 0.00 0.00 0.00 89 1011.9
20260507053408 45 220 0.0 0.9 0.00 0.00 0.00 90 1011.8
20260507051404 45 244 1.7 1.7 0.00 0.00 0.00 89 1011.3
20260507050853 45 220 0.0 0.0 0.00 0.00 0.00 89 1011.6
20260507045246 45 194 0.9 0.9 0.00 0.00 0.00 89 1011.6
20260507044735 45 245 1.7 2.6 0.00 0.00 0.00 89 1011.5
20260507043243 45 233 0.0 0.9 0.00 0.00 0.00 89 1011.4
20260507042223 45 227 0.0 0.9 0.00 0.00 0.00 89 1011.3
20260507040653 45 227 0.0 1.7 0.00 0.00 0.00 89 1011.3
20260507035558 45 250 0.9 2.6 0.00 0.00 0.00 90 1011.0
20260507035045 45 227 0.0 1.7 0.00 0.00 0.00 90 1010.7
20260507034538 45 197 0.0 0.9 0.00 0.00 0.00 91 1010.9
20260507031945 45 247 1.7 3.5 0.00 0.00 0.00 91 1010.6
20260507031003 45 241 0.9 0.9 0.00 0.00 0.00 91 1010.6
20260507024845 45 209 0.0 0.9 0.00 0.00 0.00 92 1010.6
20260507024335 45 218 0.0 0.9 0.00 0.00 0.00 92 1010.4
20260507023315 45 192 0.9 1.7 0.00 0.00 0.00 92 1010.5
20260507022805 45 226 1.7 1.7 0.00 0.00 0.00 92 1010.4
20260507021745 45 233 0.0 1.7 0.00 0.00 0.00 92 1010.4
20260507021235 45 230 0.9 1.7 0.00 0.00 0.00 92 1010.3
20260507020215 45 228 0.9 2.6 0.00 0.00 0.00 92 1010.5
20260507015705 45 226 0.0 0.9 0.00 0.00 0.00 92 1010.3
20260507015155 45 226 0.0 0.0 0.00 0.00 0.00 92 1010.6
20260507014645 45 233 0.0 0.9 0.00 0.00 0.00 92 1010.4
20260507014135 45 229 0.0 0.9 0.00 0.00 0.00 92 1010.2
20260507013153 45 231 0.0 0.0 0.00 0.00 0.00 92 1010.5
20260507012604 45 223 0.0 0.0 0.00 0.00 0.00 92 1010.3
20260507012054 45 241 0.9 3.5 0.00 0.00 0.00 92 1010.2
20260507011034 45 230 0.0 3.5 0.00 0.00 0.00 92 1010.0
20260507010015 45 243 0.9 1.7 0.00 0.00 0.00 92 1009.9
20260507005504 45 225 0.0 0.9 0.00 0.00 0.00 92 1010.1
20260507005033 45 240 0.0 0.9 0.00 0.00 0.00 92 1009.9
20260507003934 44 238 0.9 2.6 0.00 0.00 0.00 92 1009.8
20260507003424 44 305 0.9 1.7 0.00 0.00 0.00 92 1009.5
20260507002404 45 242 0.9 1.7 0.00 0.00 0.00 92 1009.8
20260507001344 45 224 0.0 0.9 0.00 0.00 0.00 92 1009.8
20260507000834 45 263 0.9 2.6 0.00 0.00 0.00 92 1009.7
20260506235306 45 223 0.9 0.9 0.00 0.00 0.00 91 1009.9
20260506234323 45 218 0.9 0.9 0.00 0.00 0.00 92 1009.8
20260506232204 45 242 0.9 1.7 0.00 0.00 0.00 92 1009.9
20260506231147 45 233 0.0 0.9 0.00 0.00 0.00 92 1009.8
20260506230124 46 294 3.5 3.5 0.00 0.00 0.00 93 1009.7
20260506225104 46 263 1.7 3.5 0.00 0.00 0.00 94 1009.5
20260506223534 47 234 0.9 1.7 0.00 0.00 0.00 93 1009.4
20260506223024 47 249 0.9 1.7 0.00 0.00 0.00 93 1009.4
20260506221532 47 310 1.7 2.6 0.00 0.00 0.00 92 1009.4
20260506215453 49 229 0.0 3.5 0.00 0.00 1.13 93 1009.3
20260506214945 49 241 0.0 1.7 0.00 0.00 1.13 93 1009.1
20260506214355 49 237 0.9 3.5 0.00 0.00 1.13 93 1009.1
20260506213844 49 214 0.0 1.7 0.00 0.00 1.13 94 1009.1
20260506212314 49 213 0.0 0.9 0.00 0.00 1.13 95 1008.8
20260506210234 50 272 0.9 2.6 0.00 0.00 1.13 94 1008.8
20260506205214 49 236 0.9 2.6 0.00 0.00 1.13 94 1008.6
20260506204707 50 243 0.9 1.7 0.00 0.00 1.13 95 1008.5
20260506204232 50 213 0.0 0.9 0.00 0.00 1.13 95 1008.8
20260506203134 50 240 0.9 1.7 0.00 0.00 1.13 95 1008.7
20260506202114 50 214 0.9 1.7 0.00 0.00 1.13 94 1008.8
20260506201642 50 238 0.0 1.7 0.00 0.00 1.13 94 1008.7
20260506201217 50 244 0.0 0.9 0.00 0.00 1.13 94 1008.6
20260506200034 50 237 0.0 1.7 0.00 0.00 1.13 95 1008.6
20260506193954 50 234 0.0 0.9 0.00 0.00 1.13 95 1008.5
20260506193522 50 231 0.0 0.0 0.00 0.00 1.13 95 1008.4
20260506191404 51 229 0.0 0.0 0.00 0.00 1.13 95 1008.3
20260506190932 51 228 0.0 0.0 0.00 0.00 1.13 95 1008.4
20260506190344 51 250 0.9 0.9 0.00 0.00 1.13 95 1008.3
20260506185837 50 245 0.0 0.9 0.00 0.00 1.13 95 1008.0
20260506185324 51 230 0.0 0.9 0.00 0.00 1.13 95 1007.5
20260506184304 51 235 0.0 0.9 0.00 0.00 1.13 95 1007.8
20260506183244 51 236 0.9 0.9 0.00 0.00 1.13 94 1007.7
20260506182733 51 206 0.0 1.7 0.00 0.00 1.13 94 1007.8
20260506182306 51 247 0.9 0.9 0.00 0.00 1.13 94 1007.8
20260506181326 51 238 0.0 0.9 0.00 0.00 1.13 94 1007.6
20260506180653 51 273 0.9 2.6 0.00 0.00 1.13 93 1007.7
20260506175123 51 220 0.0 0.9 0.00 0.00 1.13 93 1007.5
20260506174614 52 252 0.9 5.2 0.00 0.00 1.13 93 1007.2
20260506173553 52 247 0.9 2.6 0.00 0.00 1.13 94 1007.4
20260506173043 52 259 0.9 1.7 0.00 0.00 1.13 94 1007.4
20260506172533 52 199 0.9 1.7 0.00 0.00 1.13 94 1007.6
20260506171513 52 229 0.9 2.6 0.00 0.00 1.13 93 1007.2
20260506171003 53 255 0.9 2.6 0.00 0.00 1.13 93 1007.2
20260506170453 53 226 0.0 0.9 0.00 0.00 1.13 93 1007.5
20260506165943 53 278 0.9 2.6 0.00 0.00 1.13 93 1007.1
20260506165001 53 259 1.7 1.7 0.00 0.00 1.13 92 1007.1
20260506164539 53 263 0.9 2.6 0.00 0.00 1.13 92 1007.1
20260506164026 53 241 0.0 2.6 0.00 0.00 1.13 92 1007.1
20260506161901 55 224 0.0 0.9 0.00 0.00 1.13 91 1007.3
20260506161313 55 195 0.0 2.6 0.00 0.00 1.13 90 1007.2
20260506160332 55 180 0.0 0.0 0.00 0.00 1.13 91 1007.1
20260506155821 55 229 0.0 0.9 0.00 0.00 1.13 92 1007.3
20260506155314 55 232 0.0 1.7 0.00 0.00 1.13 93 1007.3
20260506154723 54 216 0.0 0.9 0.00 0.00 1.13 94 1007.4
20260506153826 54 243 0.9 0.9 0.00 0.00 1.13 94 1007.4
20260506153231 54 225 0.9 0.9 0.00 0.00 1.13 95 1007.3
20260506152646 54 247 0.9 1.7 0.00 0.00 1.13 94 1007.4
20260506151113 54 245 0.0 1.7 0.00 0.00 1.13 94 1007.2
20260506150053 54 234 0.0 1.7 0.00 0.00 1.13 94 1007.1
20260506145546 54 224 0.0 0.9 0.00 0.00 1.13 93 1007.0
20260506144013 55 251 0.0 1.7 0.00 0.00 1.13 92 1007.0
20260506143503 54 243 0.9 0.9 0.00 0.00 1.13 92 1007.1
20260506142953 55 223 0.0 0.9 0.00 0.00 1.13 92 1006.9
20260506141933 55 231 0.0 0.9 0.00 0.00 1.13 91 1007.0
20260506141423 56 236 0.0 1.7 0.00 0.00 1.13 91 1007.1
20260506140913 56 265 1.7 1.7 0.00 0.00 1.13 91 1007.2
20260506140403 55 221 0.9 0.9 0.00 0.00 1.13 95 1007.2
20260506135421 54 221 0.0 1.7 0.00 0.00 1.13 94 1007.1
20260506134833 54 225 0.0 1.7 0.00 0.00 1.13 95 1006.9
20260506133425 54 215 0.9 2.6 0.00 0.00 1.13 97 1007.0
20260506131733 53 217 0.0 0.9 0.00 0.00 1.13 99 1007.2
20260506131223 53 232 1.7 2.6 0.00 0.00 1.13 99 1007.1
20260506130203 53 209 0.0 0.9 0.01 0.00 1.13 99 1007.0
20260506125653 53 193 0.9 0.9 0.01 0.00 1.13 99 1007.2
20260506125143 53 273 1.7 1.7 0.01 0.00 1.13 99 1007.1
20260506124633 52 285 1.7 2.6 0.01 0.00 1.13 99 1006.9
20260506123102 52 219 0.0 1.7 0.01 0.00 1.13 99 1006.9
20260506122631 52 234 0.0 1.7 0.01 0.00 1.13 99 1006.9
20260506122042 52 274 0.9 1.7 0.01 0.00 1.13 99 1006.9
20260506121532 52 220 0.0 0.9 0.01 0.00 1.13 99 1006.7
20260506120512 52 220 0.0 0.9 0.00 0.00 1.12 99 1006.8
20260506120002 52 259 0.9 1.7 0.00 0.00 1.12 99 1006.6
20260506115021 52 220 0.0 0.9 0.00 0.00 1.12 99 1006.7
20260506114432 52 219 0.0 0.0 0.00 0.00 1.12 99 1006.6
20260506114000 52 200 0.0 0.0 0.00 0.00 1.12 99 1006.5
20260506113535 52 216 0.0 0.0 0.00 0.00 1.12 99 1006.7
20260506112943 52 224 0.0 0.9 0.00 0.00 1.12 99 1006.6
20260506111842 52 223 0.0 0.0 0.00 0.00 1.12 99 1006.3
20260506111333 52 98 1.7 2.6 0.00 0.00 1.12 99 1006.5
20260506110438 52 223 0.0 0.9 0.00 0.00 1.12 99 1006.4
20260506105802 52 275 0.9 0.9 0.00 0.00 1.12 99 1006.2
20260506105334 52 219 0.0 0.9 0.01 0.00 1.12 99 1006.1
20260506104742 52 224 0.0 0.9 0.01 0.00 1.12 99 1006.3
20260506104235 52 208 0.0 0.9 0.01 0.00 1.12 99 1006.2
20260506102230 52 225 0.0 0.9 0.05 0.00 1.12 99 1006.0
20260506101211 52 231 0.9 0.9 0.07 0.00 1.12 99 1005.8
20260506100112 51 240 0.0 0.9 0.08 0.00 1.12 99 1005.9
20260506095605 51 218 0.0 0.9 0.08 0.00 1.11 99 1005.8
20260506093600 51 218 0.0 0.0 0.10 0.00 1.10 99 1005.8
20260506092505 51 270 0.9 0.9 0.09 0.00 1.07 99 1005.7
20260506090422 51 258 0.0 0.9 0.12 0.00 1.04 99 1005.4
20260506084852 51 221 0.0 0.9 0.15 0.00 1.02 99 1005.6
20260506084342 50 300 1.7 1.7 0.16 0.00 1.01 99 1005.5
20260506083910 51 220 0.9 3.5 0.17 0.00 1.00 99 1005.4
20260506082812 51 249 0.0 3.5 0.20 0.00 0.98 99 1005.1
20260506082304 51 282 0.9 2.6 0.21 0.00 0.97 99 1005.2
20260506081242 50 231 0.9 1.7 0.22 0.00 0.94 99 1005.3
20260506080732 50 229 0.0 0.9 0.22 0.00 0.92 99 1005.2
20260506080222 50 224 0.0 0.9 0.23 0.00 0.91 99 1005.5
20260506072102 50 234 0.0 0.9 0.16 0.00 0.75 99 1005.0
20260506071555 50 254 0.9 0.9 0.14 0.00 0.73 99 1005.1
20260506071042 50 219 0.0 0.9 0.11 0.00 0.70 99 1005.1
20260506070531 50 232 0.0 0.9 0.09 0.00 0.68 99 1004.9
20260506062414 50 262 0.9 1.7 0.04 0.00 0.59 99 1004.6
20260506061902 50 206 0.0 1.7 0.04 0.00 0.59 99 1004.8
20260506061351 50 235 0.9 0.9 0.04 0.00 0.59 99 1004.7